User: anonymous   Login
Location: Unspecified
(0.0000°N, 0.0000°E)
Time: 14:08:50
(UTC+02:00)
Language:

Ariane H10 - Orbit

View from above orbital plane
View from above orbital plane
View from above satellite
View from above satellite

Ground track
Ground track

The orbit data is extracted from the following two-line orbital elements,

1 19122U 88040B   15243.70684730 -.00000226  00000-0 -99163-3 0  9998
2 19122   7.3551  75.0041 7138502 339.1904 310.0779  2.33092842181640
Epoch (UTC): 31 August 2015 16:57:51
Eccentricity: 0.7138502
inclination: 7.3551°
perigee height: 497 km
apogee height: 34802 km
right ascension of ascending node: 75.0041°
argument of perigee: 339.1904°
revolutions per day: 2.33092842
mean anomaly at epoch: 310.0779°
orbit number at epoch: 18164

The dashed part of the orbit path shows where the satellite is in the earth's shadow,  

DLR